Location: *
(43.7000°S, 168.7000°W)
Time: 11:55:58
(UTC+00:00)

Cosmos 2263 Rocket - Pass Details

Date: 07 July 2020
Orbit: 825 x 847 km, 71.0° (Epoch: 09 August)

Event Time Altitude Azimuth Distance (km) Brightness Sun altitude
Exits shadow 17:17:03 - 196° (SSW) 3,230 4.9 -15.8°
Reaches altitude 10° 17:19:18 10° 185° (S) 2,505 4.4 -15.4°
Maximum altitude 17:24:07 27° 128° (SE) 1,604 4.0 -14.6°
Drops below altitude 10° 17:28:54 10° 72° (ENE) 2,484 6.1 -13.8°
Sets 17:31:43 0° 59° (ENE) 3,410 7.1 -13.3°
